Simultaneous Nadir Overpasses (SNOs) Predictions

Prediction of SNOs between GOES-17 and METOP-C Satellite Orbit:

Table of predicted SNOs for the next 14.0 days since TLE Epoch: 4/1/2023
Index Date Time (GOES-17) GOES-17 Lat,Lon METOP-C Lat,Lon Distance(km) Time Diff (sec)
1 04/01/2023 04:31:40 0.00,-104.74 -0.04,-104.95 23.86 80
2 04/03/2023 16:29:55 -0.00,-104.78 -0.04,-104.52 28.53 80
3 04/05/2023 04:48:55 0.00,-104.75 -0.97,-109.12 498.25 80
4 04/06/2023 04:25:37 0.01,-104.75 0.16,-104.14 70.83 80
5 04/07/2023 16:44:30 -0.01,-104.79 0.87,-108.70 445.96 80
6 04/08/2023 16:26:32 -0.01,-104.79 -0.27,-103.72 123.13 80
7 04/10/2023 04:45:31 0.01,-104.76 -0.78,-108.31 403.95 80
8 04/11/2023 04:22:11 0.01,-104.76 0.30,-103.31 164.67 80
9 04/12/2023 16:41:05 -0.00,-104.79 0.71,-107.88 352.97 80
10 04/13/2023 16:23:06 -0.00,-104.78 -0.45,-102.90 215.79 80
